COSMOS 2425 (GLONASS) 1 29670U 06062A 22145.42475139 -.00000041 00000-0 00000-0 0 9993 2 29670 64.7671 243.9095 0024104 343.7088 89.4236 2.13111027119969 COSMOS 2426 (GLONASS) 1 29671U 06062B 22145.30444538 -.00000042 00000-0 00000-0 0 9991 2 29671 64.7755 244.0793 0020828 177.0306 190.2043 2.12963339119956 COSMOS 2433 (GLONASS) 1 32275U 07052A 22145.58521530 -.00000069 00000-0 00000+0 0 9991 2 32275 66.0855 5.4271 0000297 277.6637 79.3489 2.13103931113475 COSMOS 2432 (GLONASS) 1 32276U 07052B 22145.38515163 -.00000070 00000-0 00000+0 0 9997 2 32276 66.0958 5.5370 0010176 341.0175 170.9116 2.13103441113472 COSMOS 2434 (GLONASS) 1 32393U 07065A 22145.74382484 -.00000037 00000-0 00000-0 0 9993 2 32393 64.3881 242.2008 0003058 89.9750 278.2120 2.13103214112197 COSMOS 2436 (GLONASS) 1 32395U 07065C 22145.63631588 -.00000038 00000-0 00000+0 0 9995 2 32395 64.3969 242.2617 0014996 1.3706 60.2303 2.13103021112125 COSMOS 2456 (GLONASS) 1 36111U 09070A 22146.12576398 .00000054 00000-0 00000+0 0 9992 2 36111 64.3483 121.8208 0006237 303.5358 163.5391 2.13099290 96861 COSMOS 2457 (GLONASS) 1 36112U 09070B 22145.58664593 .00000060 00000-0 00000-0 0 9995 2 36112 64.3316 121.7159 0004098 199.6971 340.8982 2.13101460 96857 COSMOS 2458 (GLONASS) 1 36113U 09070C 22145.50982848 .00000061 00000-0 00000+0 0 9994 2 36113 64.3374 121.7495 0006419 301.3711 151.4188 2.13082513 96859 COSMOS 2459 (GLONASS) 1 36400U 10007A 22145.74630266 -.00000068 00000-0 00000-0 0 9994 2 36400 65.9733 4.2997 0026022 351.3610 356.7858 2.13117434 95192 COSMOS 2461 (GLONASS) 1 36401U 10007B 22145.52189560 -.00000068 00000-0 00000-0 0 9997 2 36401 65.9687 4.2727 0021705 11.0016 154.8957 2.13103819 95206 COSMOS 2460 (GLONASS) 1 36402U 10007C 22145.77090347 -.00000068 00000-0 00000+0 0 9998 2 36402 65.9541 4.2148 0002683 58.4271 246.6890 2.13106043 95203 COSMOS 2464 (GLONASS) 1 37139U 10041C 22145.92726407 -.00000035 00000-0 00000+0 0 9998 2 37139 63.9878 241.2808 0028632 11.2708 356.0380 2.13100801 91271 COSMOS 2471 (GLONASS) 1 37372U 11009A 22145.52994517 -.00000068 00000-0 00000+0 0 9993 2 37372 65.9486 4.1524 0015615 232.0360 342.9409 2.13061162 87471 COSMOS 2474 (GLONASS) 1 37829U 11055A 22145.59973494 .00000064 00000-0 00000-0 0 9995 2 37829 64.6575 123.1611 0010794 245.9945 36.1572 2.13101791 82849 COSMOS 2476 (GLONASS) 1 37867U 11064A 22145.81391248 .00000061 00000-0 00000-0 0 9990 2 37867 64.6374 123.1788 0023099 241.6458 251.5095 2.13101768 82204 COSMOS 2477 (GLONASS) 1 37868U 11064B 22145.49120698 .00000065 00000-0 00000-0 0 9998 2 37868 64.6454 123.2602 0020476 242.9322 180.7734 2.13101560 82157 COSMOS 2475 (GLONASS) 1 37869U 11064C 22145.61936194 .00000064 00000-0 00000+0 0 9997 2 37869 64.6528 123.2581 0025195 258.8771 221.1357 2.13102030 82168 COSMOS 2485 (GLONASS) 1 39155U 13019A 22145.80425141 .00000063 00000-0 00000-0 0 9995 2 39155 64.8016 123.6027 0023422 237.6350 292.4990 2.13101902 70674 COSMOS 2492 (GLONASS) 1 39620U 14012A 22145.53521582 -.00000068 00000-0 00000-0 0 9998 2 39620 65.8408 3.9061 0012976 334.2305 24.0150 2.13103180 63614 COSMOS 2500 (GLONASS) 1 40001U 14032A 22145.73177272 -.00000068 00000-0 00000-0 0 9990 2 40001 65.7838 3.7629 0004447 185.4934 182.2756 2.13102449 61840 COSMOS 2501 (GLONASS) 1 40315U 14075A 22144.63400455 -.00000041 00000-0 00000+0 0 9995 2 40315 63.6947 242.0104 0018484 208.4124 205.0487 2.13101454 58223 COSMOS 2514 (GLONASS) 1 41330U 16008A 22145.48210159 -.00000069 00000-0 00000-0 0 9996 2 41330 65.5817 3.4685 0008036 202.8439 157.1714 2.13102753 49009 COSMOS 2516 (GLONASS) 1 41554U 16032A 22145.70130244 -.00000038 00000-0 00000-0 0 9998 2 41554 63.9208 242.2355 0014168 214.2934 216.1441 2.13106414 46615 COSMOS 2522 (GLONASS) 1 42939U 17055A 22145.79494006 -.00000037 00000-0 00000+0 0 9998 2 42939 64.1543 242.6213 0007567 239.4259 120.0307 2.13101812 36361